TimeCST,TemperatureF,Dew PointF,Humidity,Sea Level PressureIn,VisibilityMPH,Wind Direction,Wind SpeedMPH,Gust SpeedMPH,PrecipitationIn,Events,Conditions,WindDirDegrees,DateUTC
12:56 AM,61.0,57.9,90,29.92,10.0,South,6.9,-,N/A,,Overcast,170,2013-02-22 06:56:00
1:56 AM,62.1,59.0,90,29.90,8.0,South,5.8,-,N/A,,Overcast,170,2013-02-22 07:56:00
2:52 AM,62.6,60.8,94,29.90,3.0,SSE,8.1,-,0.04,Rain-Thunderstorm,Light Thunderstorms and Rain,160,2013-02-22 08:52:00
2:56 AM,62.1,60.1,93,29.89,3.0,South,8.1,-,0.04,Rain-Thunderstorm,Light Thunderstorms and Rain,170,2013-02-22 08:56:00
3:09 AM,62.6,60.8,94,29.89,2.5,SSE,6.9,-,0.02,Rain,Rain,160,2013-02-22 09:09:00
3:25 AM,62.6,60.8,94,29.89,3.0,SSE,5.8,-,0.04,Rain,Light Rain,160,2013-02-22 09:25:00
3:56 AM,63.0,61.0,93,29.88,4.0,Variable,3.5,-,0.04,,Overcast,0,2013-02-22 09:56:00
4:45 AM,62.6,60.8,94,29.92,2.5,North,3.5,-,0.18,Rain,Heavy Rain,10,2013-02-22 10:45:00
4:50 AM,62.6,60.8,94,29.92,2.0,NNE,4.6,-,0.23,Rain-Thunderstorm,Heavy Thunderstorms and Rain,20,2013-02-22 10:50:00
4:56 AM,62.1,61.0,96,29.92,1.5,Variable,3.5,-,0.33,Rain-Thunderstorm,Heavy Thunderstorms and Rain,0,2013-02-22 10:56:00
5:20 AM,62.6,60.8,94,29.93,2.5,NNE,3.5,-,0.27,Rain-Thunderstorm,Heavy Thunderstorms and Rain,20,2013-02-22 11:20:00
5:25 AM,62.6,60.8,94,29.93,4.0,NE,3.5,-,0.28,Rain,Rain,40,2013-02-22 11:25:00
5:56 AM,62.1,61.0,96,29.93,7.0,Calm,Calm,-,0.28,,Overcast,0,2013-02-22 11:56:00
6:24 AM,62.6,60.8,94,29.94,7.0,Calm,Calm,-,N/A,,Overcast,0,2013-02-22 12:24:00
6:56 AM,62.1,61.0,96,29.94,6.0,Calm,Calm,-,N/A,,Overcast,0,2013-02-22 12:56:00
7:24 AM,62.6,60.8,94,29.95,6.0,NNE,5.8,-,N/A,,Overcast,30,2013-02-22 13:24:00
7:56 AM,63.0,62.1,97,29.96,4.0,Calm,Calm,-,N/A,,Overcast,0,2013-02-22 13:56:00
8:23 AM,62.6,60.8,94,30.00,2.0,North,5.8,-,N/A,,Overcast,350,2013-02-22 14:23:00
8:33 AM,62.6,60.8,94,30.00,1.8,North,6.9,-,N/A,,Overcast,350,2013-02-22 14:33:00
8:56 AM,61.0,60.1,97,29.99,1.2,North,8.1,-,N/A,,Overcast,10,2013-02-22 14:56:00
9:22 AM,60.8,59.0,94,30.01,2.0,North,8.1,-,N/A,,Overcast,360,2013-02-22 15:22:00
9:56 AM,60.1,57.9,93,29.99,3.0,NE,5.8,-,N/A,,Overcast,40,2013-02-22 15:56:00
10:56 AM,60.1,57.0,90,30.00,7.0,NNE,6.9,-,N/A,,Overcast,20,2013-02-22 16:56:00
11:56 AM,59.0,57.0,93,29.99,7.0,North,8.1,-,N/A,,Overcast,350,2013-02-22 17:56:00
12:56 PM,59.0,55.9,90,29.97,9.0,North,6.9,-,N/A,,Overcast,10,2013-02-22 18:56:00
1:56 PM,59.0,55.9,90,29.94,9.0,NNE,8.1,-,N/A,,Overcast,30,2013-02-22 19:56:00
2:56 PM,-9999,-9999,N/A,-9999,-9999.0,North,-9999.0,-,N/A,,Unknown,0,2013-02-22 20:56:00
3:10 PM,59.0,57.2,94,29.94,3.0,NE,6.9,-,N/A,,Overcast,50,2013-02-22 21:10:00
3:56 PM,57.9,57.0,97,29.93,4.0,ENE,8.1,-,0.00,,Overcast,60,2013-02-22 21:56:00
4:56 PM,57.9,55.9,93,29.93,6.0,ENE,5.8,-,0.01,,Overcast,70,2013-02-22 22:56:00
5:56 PM,57.0,55.9,96,29.95,5.0,NE,12.7,-,0.00,,Overcast,40,2013-02-22 23:56:00
6:56 PM,55.9,54.0,93,29.92,8.0,East,13.8,-,0.04,,Overcast,80,2013-02-23 00:56:00
7:56 PM,55.0,54.0,96,29.93,10.0,NE,6.9,-,N/A,,Overcast,50,2013-02-23 01:56:00
8:56 PM,55.0,53.1,93,29.94,8.0,East,6.9,-,N/A,,Overcast,80,2013-02-23 02:56:00
9:56 PM,54.0,53.1,97,29.95,6.0,NE,5.8,-,0.03,Rain,Light Rain,50,2013-02-23 03:56:00
10:56 PM,53.1,52.0,96,29.91,3.0,NE,5.8,-,0.00,,Overcast,50,2013-02-23 04:56:00
11:05 PM,53.6,51.8,94,29.90,2.5,ENE,5.8,-,N/A,,Overcast,60,2013-02-23 05:05:00
11:20 PM,53.6,51.8,94,29.90,1.8,ENE,6.9,-,0.01,Rain,Light Rain,60,2013-02-23 05:20:00
11:27 PM,53.6,51.8,94,29.90,2.5,Calm,Calm,-,0.01,Rain,Light Rain,0,2013-02-23 05:27:00
11:35 PM,53.6,51.8,94,29.90,3.0,ENE,4.6,-,0.01,Rain,Light Rain,70,2013-02-23 05:35:00
11:56 PM,53.1,52.0,96,29.89,3.0,East,4.6,-,0.01,Rain,Light Rain,90,2013-02-23 05:56:00